Simultaneous Nadir Overpasses (SNOs) Predictions

Prediction of SNOs between FY3D and AQUA Satellite Orbit:

Table of predicted SNOs for the next 14.0 days since TLE Epoch: 3/2/2024
Index Date (FY3D) Time (FY3D) Lat,Lon (FY3D) SZA (FY3D ) Date (AQUA) Time (AQUA) Lat,Lon (AQUA) SZA (AQUA ) Distance(km) Time Diff (sec)
1 03/03/2024 04:35:58 -79.21, -87.92 93.44 03/03/2024 04:36:09 -79.21, -87.95 93.44 0.78 11
2 03/03/2024 05:26:38 79.01, 80.87 86.27 03/03/2024 05:25:27 79.00, 81.01 86.27 3.09 71
3 03/05/2024 16:39:51 79.33, -89.84 85.77 03/05/2024 16:40:59 79.34, -89.99 85.77 3.22 68
4 03/05/2024 17:30:30 -79.12, 79.11 94.55 03/05/2024 17:30:16 -79.13, 79.06 94.54 1.12 14
5 03/08/2024 05:34:27 79.39, 76.11 84.86 03/08/2024 05:35:08 79.38, 76.24 84.83 2.95 41
6 03/08/2024 06:25:02 -79.05,-113.90 95.66 03/08/2024 06:24:22 -79.05,-113.93 95.65 0.60 40
7 03/10/2024 18:28:54 79.19,-115.86 83.55 03/10/2024 18:29:09 79.19,-115.99 83.56 2.87 15
8 03/10/2024 19:19:33 -78.97, 53.03 96.77 03/10/2024 19:18:26 -78.97, 53.06 96.76 0.78 67
9 03/13/2024 06:32:48 -79.38,-118.31 97.17 03/13/2024 06:33:57 -79.38,-118.39 97.18 1.69 69
10 03/13/2024 07:23:27 79.15, 50.80 82.49 03/13/2024 07:23:14 79.16, 50.74 82.50 1.42 13
11 03/15/2024 19:27:21 -79.35, 48.31 98.22 03/15/2024 19:28:01 -79.35, 48.37 98.24 1.44 40



Historial Predications of SNOs between FY3D and AQUA
